+ View the NASA Portal
+ Center for Near-Earth Object Studies
IMPORTANT:
The SSD Announcement email list is now available. Major changes are coming in the near future, including possible hostname and/or URL changes. To be notified of such changes, subscribe to this email list.
Please visit
this page
for more details.
Don't show this message again
JPL Small-Body Database Browser
Search:
[
help
]
437496 (2013 YQ68)
Classification:
Main-belt Asteroid
SPK-ID:
2437496
[
Ephemeris
|
Orbit Diagram
|
Orbital Elements
|
Mission Design
|
Physical Parameters
|
Discovery Circumstances
]
[ show orbit diagram ]
Orbital Elements at Epoch 2458600.5 (2019-Apr-27.0) TDB
Reference:
JPL 13
(heliocentric ecliptic J2000)
Element
Value
Uncertainty (1-sigma)
Units
e
.03414517385733533
6.257e-08
a
2.732298044787513
3.7647e-08
au
q
2.639003253018186
1.6773e-07
au
i
3.593494859857424
6.3981e-06
deg
node
117.7630799550111
0.00013722
deg
peri
23.96704485081938
0.00019627
deg
M
50.51019927685763
0.00013618
deg
t
p
2458369.044707949447
(2018-Sep-07.54470795)
0.00062482
TDB
period
1649.645147537082
4.52
3.4095e-05
9.335e-08
d
yr
n
.218228750914995
4.5103e-09
deg/d
Q
2.82559283655684
3.8933e-08
au
Orbit Determination Parameters
# obs. used (total)
146
data-arc span
5224 days (14.30 yr)
first obs. used
2005-01-16
last obs. used
2019-05-07
planetary ephem.
DE431
SB-pert. ephem.
SB431-N16
condition code
0
norm. resid. RMS
.62148
source
ORB
producer
Otto Matic
solution date
2019-May-30 10:09:59
Additional Information
Earth MOID
= 1.65257 au
Jupiter MOID
= 2.16052 au
T_jup
= 3.350
[ show covariance matrix ]
[
Ephemeris
|
Orbit Diagram
|
Orbital Elements
|
Mission Design
|
Physical Parameters
|
Discovery Circumstances
]
Physical Parameter Table
Parameter
Symbol
Value
Units
Sigma
Reference
Notes
absolute magnitude
H
16.9
n/a
MPO434610
437496 (2013 YQ68)
Discovered 2010-Mar-18 by Mt. Lemmon Survey at Mount Lemmon
Reference:
Last Updated:
2015-06-04
[
Ephemeris
|
Orbit Diagram
|
Orbital Elements
|
Mission Design
|
Physical Parameters
|
Discovery Circumstances
]
2019-Dec-10 19:22 UT
(server date/time)
Site Manager:
Ryan S. Park
Webmaster
:
Alan B. Chamberlin